Showing default

TRANSIT 5B-2, 704

Orbit data source: Space-Track

TRANSIT 5B-2, 704 is a payload satellite owned by USN BuWeps (US) in LEO that was launched on Thu, 05 Dec 1963 UTC via a THOR ABLESTAR launch vehicle from the Air Force Western Test Range (AFWTR). Payloads include a variety of satellites, spacecraft, and rockets equipped with specific instruments for various scientific and technological missions. These include communications satellites like Starlink; space stations such as the ISS; scientific satellites like the Hubble; Earth observation satellites from companies like Planet Labs, Umbra, and HawkEye 360; GPS; miniature CubeSats for education and research; and military/defense satellites.

Loading next visibility...
TRANSIT 5B-2 details
Identifier
704, 1963-049B
Orbit
LEO
Last TLE update16 hours ago
Origin
Flag of USUSN BuWeps (US)
ManufacturerAPL
MissionDefense Navigation
Bus & MotorTRANSIT 5, Unknown motor
Mass75 kg wet, 75 kg dry
Launch date (UTC)
1963-12-05 (61 years ago)
Launch vehicle
THOR ABLESTAR
Launch site
Air Force Western Test Range (AFWTR)
Object type
Payload
Rocket body
Debris
Shape & HBROct Cyl + Cyl + 1 Rod, 30 m
Radar Cross Section0.334 m², Large (>1 m²)

Expand to show TLE details & history

TLE from 16 hours ago
0 TRANSIT 5B-2
1 00704U 63049B   24355.83349928  .00000113  00000-0  16898-3 0  9998
2 00704  89.9176  74.9498 0036384  63.3513  57.4073 13.47046420998170
Epoch: 2024-12-20T20:00Z
Definitive object data (Epoch: 2024-12-20T20:00:14.337Z)
Latitude58.9803°
Longitude-135.1396°
Altitude1,078.655 km
Speed7.325 km/s
True Right ascension16h 59m 15s
True Declination58° 50' 05"
Sunlit
Object was in daylight at TLE epoch
Visualization TLE readout
Latitude10.87541°
Longitude-135.02463°
Altitude1,093.496 km
Speed7.302 km/s
Apparent Right ascension19h 20m 23s
Apparent Declination-17° 28' 51"
Sunlit
Object is in daylight
Visualization observer readout
Local Sidereal Time11:18:55
Azimuth84.517° E
Elevation-34.233°
Doppler factor1
Orbital elements
Apogee altitude1,107.336 km
Perigee altitude1,053.063 km
Semi-major axis7,458.336 km
Eccentricity0.0036384
Inclination89.9176°
RAAN74.9498°
Arg. of periapsis63.3513°
True anomaly57.75943°
Mean anomaly57.4073°
Eccentric anomaly57.58328°
Mean motion3.36961 °/min
BSTAR0.00016898
Orbital period106.84 mins
Loading maneuver chart data...
Loading historical data...
Loading historical data...
Loading historical data...
Loading historical data...
Loading historical data...
Loading historical data...
Loading historical data...

TRANSIT 5B-2 Visibility forecast

Observer location: undefined°, undefined

Span
Click to sort rows by Start time (UTC) header in descending order
Start Az.
Max El. time (UTC)
Max El. Az.
Max El.
End time (UTC)
End Az.
12 mins2024-12-21 17:23:09.141Z10.905° NNE2024-12-21 17:29:09.141Z77.834° E39.778°2024-12-21 17:35:09.141Z164.781° S
8 mins2024-12-21 19:12:09.141Z324.62° NNW2024-12-21 19:16:09.141Z279.471° WNW21.165°2024-12-21 19:20:09.141Z240.131° WSW
10 mins2024-12-22 05:24:09.141Z154.104° SSE2024-12-22 05:29:09.141Z66.403° ENE39.661°2024-12-22 05:34:09.141Z8.487° NNE
8 mins2024-12-22 07:12:09.141Z240.039° WSW2024-12-22 07:16:09.141Z284.334° WNW20.4°2024-12-22 07:20:09.141Z325.177° NNW
|